When you browse on this site, cookies collect data to enhance your experience and personalize the content and advertising you see.
Visit our Privacy Policy to learn more. By continuing to use the site, you agree to this use of cookies and data.
  • In Romania
  • List of Countries
  • For 7 days
  • Water Temperature
  • Satellite Maps
  • Weather Map
  • Weather Widgets
  • user-avatar
    Login

    Hourly Weather Gabrovo

    Today, 21 April, Sunday

    Time Temperature Precipitation Wind Pressure Humidity
    00:00 +2°C° 0 mm 2 mps 708 mmHg 64%
    01:00 +2°C° 0 mm 2 mps 707 mmHg 64%
    02:00 +2°C° 0 mm 2 mps 707 mmHg 64%
    03:00 +3°C° 0 mm 1 mps 707 mmHg 64%
    04:00 +3°C° 0 mm 1 mps 707 mmHg 64%
    05:00 +2°C° 0 mm 1 mps 706 mmHg 64%
    06:00 +4°C° 0 mm 1 mps 707 mmHg 61%
    07:00 +6°C° 0 mm 1 mps 707 mmHg 57%
    08:00 +8°C° 0 mm 1 mps 707 mmHg 53%
    09:00 +9°C° 0 mm 1 mps 707 mmHg 49%
    10:00 +10°C° 0 mm 2 mps 707 mmHg 46%
    11:00 +12°C° 0 mm 2 mps 707 mmHg 42%
    12:00 +13°C° 0 mm 2 mps 706 mmHg 42%
    13:00 +13°C° 0 mm 2 mps 706 mmHg 41%
    14:00 +14°C° 0 mm 2 mps 706 mmHg 41%
    15:00 +13°C° 0 mm 2 mps 706 mmHg 43%
    16:00 +13°C° 0 mm 1 mps 705 mmHg 45%
    17:00 +13°C° 0 mm 1 mps 705 mmHg 47%
    18:00 +11°C° 0 mm 1 mps 705 mmHg 54%
    19:00 +9°C° 0 mm 1 mps 704 mmHg 61%
    20:00 +7°C° 0 mm 1 mps 704 mmHg 68%
    21:00 +6°C° 0 mm 1 mps 704 mmHg 71%
    22:00 +6°C° 0 mm 1 mps 704 mmHg 74%
    23:00 +5°C° 0 mm 1 mps 704 mmHg 77%

    Tomorrow, 22 April, Monday

    Time Temperature Precipitation Wind Pressure Humidity
    00:00 +5°C° 0 mm 1 mps 704 mmHg 78%
    01:00 +5°C° 0 mm 1 mps 704 mmHg 80%
    02:00 +4°C° 0 mm 1 mps 704 mmHg 81%
    03:00 +4°C° 0 mm 1 mps 703 mmHg 82%
    04:00 +4°C° 0 mm 1 mps 703 mmHg 82%
    05:00 +3°C° 0 mm 1 mps 703 mmHg 82%
    06:00 +5°C° 0 mm 1 mps 703 mmHg 76%
    07:00 +7°C° 0 mm 1 mps 703 mmHg 70%
    08:00 +9°C° 0 mm 1 mps 704 mmHg 64%
    09:00 +10°C° 0 mm 1 mps 704 mmHg 60%
    10:00 +12°C° 0 mm 2 mps 704 mmHg 56%
    11:00 +14°C° 0 mm 2 mps 704 mmHg 52%
    12:00 +13°C° 0 mm 3 mps 704 mmHg 51%
    13:00 +14°C° 0 mm 3 mps 704 mmHg 50%
    14:00 +16°C° 0 mm 3 mps 704 mmHg 49%
    15:00 +14°C° 0 mm 4 mps 703 mmHg 53%
    16:00 +14°C° 0 mm 4 mps 703 mmHg 57%
    17:00 +14°C° 0 mm 4 mps 703 mmHg 61%
    18:00 +12°C° 0.1 mm 4 mps 703 mmHg 70%
    19:00 +10°C° 0.1 mm 3 mps 703 mmHg 79%
    20:00 +8°C° 0.1 mm 3 mps 703 mmHg 88%
    21:00 +7°C° 0 mm 3 mps 703 mmHg 90%
    22:00 +7°C° 0 mm 3 mps 703 mmHg 91%
    23:00 +5°C° 0 mm 4 mps 704 mmHg 93%

    Day after tomorrow, 23 April, Tuesday

    Time Temperature Precipitation Wind Pressure Humidity
    00:00 +4°C° 0 mm 3 mps 704 mmHg 90%
    01:00 +3°C° 0 mm 3 mps 703 mmHg 87%
    02:00 +3°C° 0 mm 3 mps 703 mmHg 84%
    03:00 +3°C° 0 mm 3 mps 704 mmHg 81%
    04:00 +2°C° 0 mm 3 mps 704 mmHg 78%
    05:00 +3°C° 0 mm 2 mps 704 mmHg 75%
    06:00 +2°C° 0.3 mm 3 mps 704 mmHg 76%
    07:00 +3°C° 0.3 mm 3 mps 704 mmHg 77%
    08:00 +3°C° 0.3 mm 3 mps 705 mmHg 79%
    09:00 +5°C° 0.1 mm 3 mps 705 mmHg 73%
    10:00 +7°C° 0.1 mm 4 mps 705 mmHg 68%
    11:00 +10°C° 0.1 mm 4 mps 706 mmHg 62%
    12:00 +9°C° 0 mm 5 mps 705 mmHg 61%
    13:00 +10°C° 0 mm 5 mps 705 mmHg 59%
    14:00 +12°C° 0 mm 5 mps 705 mmHg 58%
    15:00 +12°C° 0 mm 5 mps 705 mmHg 59%
    16:00 +12°C° 0 mm 5 mps 705 mmHg 61%
    17:00 +13°C° 0 mm 5 mps 705 mmHg 62%
    18:00 +11°C° 0 mm 4 mps 704 mmHg 67%
    19:00 +10°C° 0 mm 4 mps 704 mmHg 73%
    20:00 +7°C° 0 mm 4 mps 704 mmHg 78%
    21:00 +8°C° 0 mm 3 mps 704 mmHg 82%
    22:00 +7°C° 0 mm 3 mps 705 mmHg 85%
    23:00 +5°C° 0 mm 3 mps 705 mmHg 89%

    24 April, Wednesday

    Time Temperature Precipitation Wind Pressure Humidity
    00:00 +5°C° 0 mm 2 mps 705 mmHg 89%
    01:00 +5°C° 0 mm 2 mps 705 mmHg 90%
    02:00 +6°C° 0 mm 1 mps 705 mmHg 90%
    03:00 +5°C° 0 mm 1 mps 705 mmHg 90%
    04:00 +5°C° 0 mm 1 mps 705 mmHg 89%
    05:00 +5°C° 0 mm 1 mps 705 mmHg 88%
    06:00 +7°C° 0 mm 1 mps 706 mmHg 82%
    07:00 +9°C° 0 mm 1 mps 706 mmHg 75%
    08:00 +10°C° 0 mm 0 mps 707 mmHg 69%
    09:00 +13°C° 0 mm 1 mps 708 mmHg 65%
    10:00 +15°C° 0 mm 1 mps 708 mmHg 61%
    11:00 +17°C° 0 mm 2 mps 708 mmHg 57%
    12:00 +17°C° 0 mm 2 mps 708 mmHg 56%
    13:00 +18°C° 0 mm 3 mps 708 mmHg 55%
    14:00 +19°C° 0 mm 3 mps 708 mmHg 54%
    15:00 +19°C° 0 mm 3 mps 708 mmHg 57%
    16:00 +18°C° 0 mm 3 mps 707 mmHg 59%
    17:00 +18°C° 0 mm 3 mps 707 mmHg 62%
    18:00 +16°C° 0 mm 3 mps 707 mmHg 69%
    19:00 +13°C° 0 mm 3 mps 707 mmHg 76%
    20:00 +12°C° 0 mm 2 mps 707 mmHg 83%
    21:00 +10°C° 0 mm 2 mps 707 mmHg 85%
    22:00 +10°C° 0 mm 2 mps 707 mmHg 87%
    23:00 +9°C° 0 mm 2 mps 707 mmHg 90%

    25 April, Thursday

    Time Temperature Precipitation Wind Pressure Humidity
    00:00 +8°C° 0 mm 2 mps 707 mmHg 91%
    01:00 +8°C° 0 mm 2 mps 707 mmHg 92%
    02:00 +8°C° 0 mm 1 mps 707 mmHg 93%
    03:00 +8°C° 0 mm 1 mps 707 mmHg 93%
    04:00 +8°C° 0 mm 1 mps 706 mmHg 94%
    05:00 +7°C° 0 mm 1 mps 706 mmHg 94%
    06:00 +9°C° 0 mm 1 mps 707 mmHg 90%
    07:00 +10°C° 0 mm 1 mps 707 mmHg 85%
    08:00 +12°C° 0 mm 1 mps 708 mmHg 80%
    09:00 +14°C° 0 mm 1 mps 708 mmHg 74%
    10:00 +16°C° 0 mm 2 mps 708 mmHg 67%
    11:00 +18°C° 0 mm 2 mps 709 mmHg 61%
    12:00 +18°C° 0 mm 2 mps 709 mmHg 59%
    13:00 +19°C° 0 mm 2 mps 708 mmHg 56%
    14:00 +20°C° 0 mm 3 mps 708 mmHg 54%
    15:00 +20°C° 0 mm 3 mps 708 mmHg 57%
    16:00 +19°C° 0 mm 3 mps 707 mmHg 59%
    17:00 +19°C° 0 mm 3 mps 707 mmHg 62%
    18:00 +17°C° 0 mm 3 mps 707 mmHg 71%
    19:00 +14°C° 0 mm 3 mps 707 mmHg 80%
    20:00 +13°C° 0 mm 2 mps 707 mmHg 89%
    21:00 +12°C° 0 mm 2 mps 706 mmHg 87%
    22:00 +10°C° 0 mm 2 mps 706 mmHg 85%
    23:00 +9°C° 0 mm 2 mps 706 mmHg 84%

    26 April, Friday

    Time Temperature Precipitation Wind Pressure Humidity
    00:00 +9°C° 0 mm 2 mps 706 mmHg 83%
    01:00 +10°C° 0 mm 1 mps 705 mmHg 81%
    02:00 +10°C° 0 mm 1 mps 705 mmHg 80%
    03:00 +9°C° 0.1 mm 1 mps 705 mmHg 82%
    04:00 +9°C° 0.1 mm 1 mps 705 mmHg 84%
    05:00 +9°C° 0.1 mm 1 mps 705 mmHg 86%
    06:00 +10°C° 0.1 mm 1 mps 705 mmHg 84%
    07:00 +11°C° 0.1 mm 1 mps 705 mmHg 81%
    08:00 +12°C° 0.1 mm 1 mps 705 mmHg 78%
    09:00 +13°C° 0.1 mm 2 mps 705 mmHg 75%
    10:00 +15°C° 0.1 mm 2 mps 705 mmHg 71%
    11:00 +16°C° 0.1 mm 2 mps 705 mmHg 67%
    12:00 +17°C° 0.1 mm 2 mps 705 mmHg 65%
    13:00 +18°C° 0.1 mm 2 mps 705 mmHg 62%
    14:00 +19°C° 0.1 mm 2 mps 705 mmHg 60%
    15:00 +18°C° 0.2 mm 2 mps 704 mmHg 66%
    16:00 +17°C° 0.2 mm 2 mps 704 mmHg 72%
    17:00 +16°C° 0.2 mm 2 mps 703 mmHg 78%
    18:00 +15°C° 0 mm 2 mps 703 mmHg 83%
    19:00 +14°C° 0 mm 2 mps 703 mmHg 87%
    20:00 +12°C° 0 mm 2 mps 703 mmHg 91%
    21:00 +12°C° 0 mm 1 mps 703 mmHg 92%
    22:00 +11°C° 0 mm 1 mps 703 mmHg 93%
    23:00 +10°C° 0 mm 1 mps 702 mmHg 93%
    Show more